Lid_Strength_Index
7 11 14 11 10 11 12 13 13 11 9 10 11 11 9 7 7 9 9 9 10 10 8 8 8 7 6 5 4 2 2 1 1 1 2 2 2 1 1 0 0 1 0 0
11 13 10 9 9 11 12 14 14 11 9 10 12 12 9 8 8 8 8 9 9 9 9 8 8 8 8 5 5 2 2 1 1 1 1 1 1 1 1 0 1 1 1 1
13 12 9 10 11 12 13 14 14 14 11 10 12 13 11 9 7 7 7 7 8 9 9 9 8 8 8 6 3 2 3 1 1 1 1 1 1 1 1 1 1 1 1 2
12 10 11 11 13 12 15 11 11 13 14 18 11 19 13 11 10 9 8 8 8 9 9 9 8 9 8 3 4 3 2 2 1 1 1 2 3 3 2 2 1 1 1 1
14 12 12 13 12 11 13 10 12 13 14 15 15 17 15 11 13 11 10 9 8 8 9 10 9 8 5 5 4 3 3 3 3 1 1 2 2 2 1 1 1 1 1 1
12 9 10 11 10 10 10 12 12 13 15 20 16 16 19 14 12 11 10 9 8 8 9 10 9 6 6 6 5 3 3 4 4 4 1 2 2 2 2 2 2 1 2 2
14 13 10 9 13 10 12 15 19 20 20 24 19 18 17 13 12 11 10 9 7 8 9 10 8 7 6 6 5 5 5 6 6 6 6 4 2 2 3 2 2 2 2 2
20 21 15 10 12 14 14 14 18 23 22 19 16 21 18 12 11 10 10 9 7 7 8 8 8 7 7 7 6 7 8 9 8 8 9 8 7 7 6 6 5 3 2 2
18 19 11 11 9 11 15 18 13 17 16 19 19 16 12 12 12 11 10 9 9 7 7 8 8 8 8 8 8 8 9 10 10 10 10 10 10 10 9 9 8 8 8 7
15 19 15 12 10 11 13 12 18 16 24 25 19 19 19 16 14 12 9 9 9 8 7 7 8 9 9 9 9 9 10 11 11 11 11 11 12 12 11 11 11 11 10 9
12 16 16 12 14 16 16 17 14 15 16 21 21 20 15 15 14 12 11 10 10 10 8 8 8 9 9 9 11 11 11 12 11 12 12 12 12 12 12 12 12 12 12 12
12 14 17 16 11 11 13 16 15 18 19 18 17 20 14 13 13 12 12 10 10 10 10 10 9 10 11 11 12 12 13 12 13 13 13 13 13 13 13 13 13 13 13 13
13 15 18 17 14 12 16 15 15 14 15 21 22 21 14 14 14 12 13 12 12 12 13 12 12 12 13 13 13 13 14 13 13 13 13 14 14 14 14 14 14 14 14 14
11 13 15 18 16 14 17 16 15 16 20 19 20 20 18 17 16 15 14 14 14 14 14 14 15 14 14 14 14 15 15 14 13 13 14 15 15 14 15 15 14 15 15 15
14 21 16 15 14 13 15 16 16 18 17 20 18 20 18 17 17 15 14 14 15 16 16 15 16 15 15 14 15 14 14 14 14 15 15 15 15 15 15 15 15 15 15 15
13 22 18 21 14 13 15 15 16 16 16 16 17 18 15 15 15 16 16 16 16 16 16 16 16 16 16 15 15 14 15 15 15 16 16 16 16 16 16 16 16 16 16 16
17 21 22 20 15 15 20 16 17 16 15 15 18 15 14 16 17 17 16 16 16 16 16 16 16 15 15 16 15 15 15 15 16 16 16 17 17 17 17 17 17 17 17 17
20 22 21 21 19 24 15 13 15 16 15 14 13 13 13 15 15 16 15 16 16 16 16 16 16 16 14 15 15 15 16 16 17 17 17 17 17 17 17 17 17 17 17 17
14 20 22 20 22 18 16 16 18 18 16 14 14 13 13 12 12 15 15 15 15 16 16 16 15 15 15 15 16 16 16 17 17 17 17 17 17 17 17 17 18 17 17 17
15 16 20 21 23 26 17 16 15 16 18 14 14 15 14 13 17 17 15 15 15 16 15 16 16 16 16 16 16 16 17 17 18 18 17 17 17 17 17 17 17 17 17 17
24 22 23 23 23 20 16 15 15 20 17 14 14 15 15 16 16 15 15 15 15 15 15 15 16 17 17 16 16 17 17 18 17 17 16 16 16 16 17 17 17 17 17 17
21 23 23 23 25 25 15 14 16 15 14 13 14 14 14 14 14 15 16 16 16 17 16 15 16 17 17 17 16 17 18 17 17 17 17 18 17 16 16 17 17 17 17 18
19 18 19 18 18 15 15 15 14 13 13 13 14 14 14 15 16 15 16 16 16 17 16 17 17 18 18 18 18 18 19 18 18 18 19 19 18 17 16 17 17 17 18 18
17 17 18 18 17 16 14 14 14 13 13 13 14 14 14 16 16 16 17 17 18 19 19 19 19 19 19 19 19 21 20 19 20 20 19 18 18 17 17 16 16 17 17 18
17 17 18 18 17 18 17 15 14 14 15 15 16 16 15 15 15 16 17 18 19 20 20 21 21 21 22 22 23 24 22 22 20 19 18 18 17 19 18 17 17 16 17 16
18 17 17 16 13 14 14 16 16 17 17 18 17 17 17 16 16 17 19 20 20 21 21 20 21 22 22 22 23 23 23 21 21 19 18 19 18 19 18 18 17 13 13 13